Overview Statistics Trail Chart Weather Telemetry Raw packets
 

This is the latest recevied weather packets stored in our database for station/object OE-11190. If no packets are shown the sender has not sent any weather packets the latest 10 day(s).

<< 11 12 13 14 15 16 17 >>
Time Temp. Humidity Pressure Rain* Wind** Luminosity Snow
1788203708 26.11° C 40% 1014.2 hPa 0 mm - 0 W/m² -
1788203113 26.11° C 39% 1013.9 hPa 0 mm - 0 W/m² -
1788202508 26.11° C 39% 1013.8 hPa 0 mm - 0 W/m² -
1788201908 26.11° C 39% 1013.6 hPa 0 mm - 0 W/m² -
1788201311 26.67° C 38% 1013.6 hPa 0 mm - 0 W/m² -
1788200707 26.67° C 37% 1013.4 hPa 0 mm - 0 W/m² -
1788200107 26.67° C 37% 1013.1 hPa 0 mm - 0 W/m² -
1788199507 27.22° C 36% 1013.2 hPa 0 mm - 0 W/m² -
1788198908 27.22° C 36% 1013.3 hPa 0 mm - 0 W/m² -
1788198308 27.22° C 35% 1013.2 hPa 0 mm - 8 W/m² -
1788197708 27.78° C 35% 1012.9 hPa 0 mm - 8 W/m² -
1788197107 27.78° C 35% 1012.8 hPa 0 mm - 23 W/m² -
1788196508 27.78° C 36% 1012.9 hPa 0 mm - 23 W/m² -
1788195908 27.78° C 35% 1013 hPa 0 mm - 30 W/m² -
1788195321 28.33° C 33% 1013.2 hPa 0 mm - 30 W/m² -
1788194708 28.33° C 33% 1013.1 hPa 0 mm - 38 W/m² -
1788194107 28.33° C 33% 1013.1 hPa 0 mm - 68 W/m² -
1788193507 28.89° C 33% 1013.1 hPa 0 mm - 114 W/m² -
1788192908 28.33° C 34% 1013.2 hPa 0 mm - 114 W/m² -
1788192308 28.89° C 33% 1013.2 hPa 0 mm - 136 W/m² -
1788191708 29.44° C 32% 1013.4 hPa 0 mm - 174 W/m² -
1788191108 29.44° C 32% 1013.2 hPa 0 mm - 356 W/m² -
1788189908 29.44° C 33% 1013.4 hPa 0 mm - 372 W/m² -
1788189308 28.89° C 35% 1013.5 hPa 0 mm - 409 W/m² -
1788188708 29.44° C 34% 1013.6 hPa 0 mm - 463 W/m² -

* Rain latest hour (hover to see other rain measurements)
** Current wind speed in m/s (hover to see current wind gust speed)